KC8OLT Weather Reports


time (UTC)temp
C
wind
direction
speed
KPH
gust
KPH
rain 1hr
cm
rain 24hr
cm
rain mn
cm
humidity
%
barometer
mb
20260505114445 2 237 11.3 11.3 0.00 0.00 0.00 81 1008.0
20260505113946 2 236 9.7 11.3 0.00 0.00 0.00 82 1007.0
20260505113444 2 343 4.8 9.7 0.00 0.00 0.00 82 1007.0
20260505112944 2 252 6.4 9.7 0.00 0.00 0.00 83 1007.0
20260505112445 2 281 8.0 8.0 0.00 0.00 0.00 82 1007.0
20260505111945 2 318 9.7 11.3 0.00 0.00 0.00 81 1007.0
20260505111444 2 290 16.1 25.7 0.00 0.00 0.00 81 1007.0
20260505110944 2 275 11.3 12.9 0.00 0.00 0.00 80 1007.0
20260505110444 2 277 12.9 12.9 0.00 0.00 0.00 80 1007.0
20260505101945 2 271 6.4 12.9 0.00 0.00 0.00 82 1007.0
20260505101444 2 281 4.8 6.4 0.00 0.00 0.00 81 1007.0
20260505100944 2 237 4.8 11.3 0.00 0.00 0.00 82 1007.0
20260505100445 2 266 6.4 9.7 0.00 0.00 0.00 82 1007.0
20260505095944 2 350 9.7 14.5 0.00 0.00 0.00 82 1006.0
20260505095444 2 229 12.9 12.9 0.00 0.00 0.00 82 1006.0
20260505094944 2 281 8.0 8.0 0.00 0.00 0.00 82 1006.0
20260505094444 3 301 8.0 9.7 0.00 0.00 0.00 81 1006.0
20260505093944 3 284 9.7 9.7 0.00 0.00 0.00 80 1006.0
20260505093444 3 265 4.8 14.5 0.00 0.00 0.00 80 1006.0
20260505092945 3 319 6.4 6.4 0.00 0.00 0.00 80 1006.0
20260505092444 3 305 9.7 14.5 0.00 0.00 0.00 80 1006.0
20260505091944 3 233 3.2 4.8 0.00 0.00 0.00 79 1006.0
20260505091444 3 248 6.4 6.4 0.00 0.00 0.00 79 1006.0
20260505090948 3 214 3.2 4.8 0.00 0.00 0.00 80 1006.0
20260505090444 3 325 14.5 14.5 0.00 0.00 0.00 80 1006.0
20260505085944 3 300 4.8 6.4 0.00 0.00 0.00 81 1006.0
20260505085444 3 269 3.2 6.4 0.00 0.00 0.00 80 1006.0
20260505084944 3 105 8.0 8.0 0.00 0.00 0.00 79 1006.0
20260505084445 3 342 11.3 11.3 0.00 0.00 0.00 78 1006.0
20260505083944 3 282 6.4 9.7 0.00 0.00 0.00 79 1006.0
20260505083445 3 289 6.4 11.3 0.00 0.00 0.00 80 1006.0
20260505082944 3 321 4.8 6.4 0.00 0.00 0.00 80 1006.0
20260505082444 3 282 6.4 9.7 0.00 0.00 0.00 79 1006.0
20260505081944 3 276 8.0 8.0 0.00 0.00 0.00 79 1006.0
20260505081444 3 275 11.3 11.3 0.00 0.00 0.00 79 1005.0
20260505080945 3 275 6.4 6.4 0.00 0.00 0.00 79 1006.0
20260505080445 3 279 6.4 6.4 0.00 0.00 0.00 79 1005.0
20260505075944 3 229 6.4 6.4 0.00 0.00 0.00 79 1006.0
20260505075444 3 233 8.0 8.0 0.00 0.00 0.00 79 1005.0
20260505074944 3 356 8.0 8.0 0.00 0.00 0.00 79 1006.0
20260505074444 3 47 6.4 9.7 0.00 0.00 0.00 79 1006.0
20260505073945 3 252 4.8 6.4 0.00 0.00 0.00 79 1006.0
20260505073444 3 327 8.0 9.7 0.00 0.00 0.00 79 1006.0
20260505072944 3 267 8.0 8.0 0.00 0.00 0.00 79 1006.0
20260505072446 3 220 3.2 9.7 0.00 0.00 0.00 79 1006.0
20260505071944 3 292 6.4 6.4 0.00 0.00 0.00 79 1006.0
20260505071448 3 236 9.7 12.9 0.00 0.00 0.00 78 1006.0
20260505070944 3 303 11.3 11.3 0.00 0.00 0.00 78 1006.0
20260505070445 3 292 11.3 12.9 0.00 0.00 0.00 78 1006.0
20260505065944 3 211 6.4 12.9 0.00 0.00 0.00 78 1006.0
20260505065445 3 262 8.0 9.7 0.00 0.00 0.00 79 1006.0
20260505064945 3 272 6.4 8.0 0.00 0.00 0.00 81 1006.0
20260505064444 3 303 6.4 9.7 0.00 0.00 0.00 81 1006.0
20260505063944 3 321 4.8 6.4 0.00 0.00 0.00 82 1006.0
20260505063445 3 235 6.4 9.7 0.00 0.00 0.00 82 1006.0
20260505062945 3 297 4.8 8.0 0.00 0.00 0.00 82 1006.0
20260505062445 3 258 16.1 16.1 0.00 0.00 0.00 82 1006.0
20260505061944 3 255 9.7 9.7 0.00 0.00 0.00 82 1006.0
20260505061444 3 268 9.7 9.7 0.00 0.00 0.00 82 1006.0
20260505060945 3 272 3.2 6.4 0.00 0.00 0.00 82 1006.0
20260505060444 3 299 8.0 8.0 0.00 0.00 0.00 83 1006.0
20260505055944 3 229 6.4 6.4 0.00 0.00 0.00 83 1006.0
20260505055444 3 236 6.4 8.0 0.00 0.00 0.00 83 1006.0
20260505054944 3 265 4.8 6.4 0.00 0.00 0.00 83 1006.0
20260505054444 3 287 8.0 11.3 0.00 0.00 0.00 84 1006.0
20260505053944 3 332 11.3 11.3 0.00 0.00 0.00 85 1006.0
20260505053445 3 139 4.8 8.0 0.00 0.00 0.00 86 1006.0
20260505052944 3 274 11.3 11.3 0.00 0.00 0.00 86 1006.0
20260505052444 3 322 6.4 8.0 0.00 0.00 0.00 86 1006.0
20260505051944 3 273 4.8 8.0 0.00 0.00 0.00 87 1005.0
20260505051444 3 63 4.8 4.8 0.00 0.00 0.00 87 1005.0
20260505050944 3 220 9.7 12.9 0.00 0.00 0.00 87 1005.0
20260505050444 3 275 8.0 8.0 0.00 0.00 0.00 87 1005.0
20260505041445 4 275 12.9 12.9 0.00 0.00 0.00 78 1005.0
20260505040944 4 312 8.0 9.7 0.00 0.00 0.00 76 1005.0
20260505040445 4 258 12.9 12.9 0.00 0.00 0.00 76 1005.0
20260505035944 5 308 11.3 16.1 0.00 0.00 0.10 75 1005.0
20260505035444 5 288 8.0 9.7 0.00 0.00 0.10 74 1005.0
20260505034945 5 312 6.4 6.4 0.00 0.00 0.10 74 1005.0
20260505034444 5 320 8.0 9.7 0.00 0.00 0.10 73 1005.0
20260505033944 5 329 8.0 9.7 0.00 0.00 0.10 73 1005.0
20260505033444 5 121 6.4 9.7 0.00 0.00 0.10 72 1004.0
20260505032944 5 341 9.7 9.7 0.00 0.00 0.10 71 1004.0
20260505032444 5 284 8.0 12.9 0.00 0.00 0.10 70 1004.0
20260505031944 5 305 9.7 11.3 0.00 0.00 0.10 69 1004.0
20260505031444 5 262 8.0 8.0 0.00 0.00 0.10 68 1004.0
20260505030944 5 255 6.4 9.7 0.00 0.00 0.10 68 1004.0
20260505030444 5 199 6.4 6.4 0.00 0.00 0.10 69 1004.0
20260505025945 5 239 6.4 6.4 0.00 0.00 0.10 71 1004.0
20260505025445 5 296 3.2 6.4 0.00 0.00 0.10 72 1004.0
20260505024944 5 301 6.4 14.5 0.00 0.00 0.10 73 1004.0
20260505024444 5 1 6.4 14.5 0.00 0.00 0.10 74 1004.0
20260505023948 5 7 6.4 8.0 0.00 0.00 0.10 75 1004.0
20260505023020 5 294 9.7 9.7 0.00 0.00 0.10 77 1004.0
20260505022444 5 270 9.7 9.7 0.00 0.00 0.10 78 1004.0
20260505021944 5 298 11.3 14.5 0.00 0.00 0.10 77 1004.0
20260505021444 5 303 9.7 9.7 0.00 0.00 0.10 77 1004.0
20260505020944 5 313 9.7 9.7 0.00 0.00 0.10 77 1004.0
20260505020445 5 294 8.0 9.7 0.00 0.00 0.10 76 1004.0
20260505015944 5 309 8.0 8.0 0.00 0.00 0.10 74 1004.0
20260505015444 5 325 6.4 12.9 0.00 0.00 0.10 72 1004.0
20260505014944 5 318 14.5 14.5 0.00 0.00 0.10 73 1003.0
20260505014444 5 261 9.7 12.9 0.00 0.00 0.10 73 1004.0
20260505013944 5 279 12.9 12.9 0.00 0.00 0.10 74 1003.0
20260505013444 5 263 8.0 14.5 0.00 0.00 0.10 73 1003.0
20260505012945 6 302 8.0 12.9 0.00 0.00 0.10 72 1003.0
20260505012444 6 315 19.3 19.3 0.00 0.00 0.10 69 1003.0
20260505011944 6 269 12.9 12.9 0.00 0.00 0.10 69 1003.0
20260505011445 6 259 9.7 14.5 0.00 0.00 0.10 68 1003.0
20260505010945 6 328 27.4 27.4 0.00 0.00 0.10 67 1003.0
20260505010444 6 292 6.4 9.7 0.00 0.00 0.10 68 1003.0
20260505005944 6 321 11.3 19.3 0.00 0.00 0.10 67 1003.0
20260505005445 6 204 9.7 9.7 0.00 0.00 0.10 67 1003.0
20260505004944 6 289 9.7 9.7 0.00 0.00 0.10 67 1003.0
20260505004444 6 348 6.4 16.1 0.00 0.00 0.10 67 1003.0
20260505003944 6 250 6.4 8.0 0.00 0.00 0.10 67 1003.0
20260505003444 7 265 9.7 9.7 0.00 0.00 0.10 65 1002.0
20260505002945 7 260 3.2 4.8 0.00 0.00 0.10 67 1002.0
20260505002444 7 276 4.8 4.8 0.00 0.00 0.10 68 1002.0
20260505001945 7 301 6.4 8.0 0.00 0.00 0.10 67 1002.0
20260505001444 7 342 3.2 4.8 0.00 0.00 0.10 67 1002.0
20260505000944 7 310 9.7 16.1 0.00 0.00 0.10 66 1002.0
20260505000445 7 235 6.4 14.5 0.00 0.00 0.10 68 1002.0
20260504235944 7 268 6.4 8.0 0.00 0.00 0.10 70 1002.0
20260504235444 6 263 9.7 16.1 0.00 0.00 0.10 70 1002.0
20260504234944 7 4 8.0 8.0 0.00 0.00 0.10 69 1002.0
20260504234444 7 313 9.7 12.9 0.00 0.00 0.10 68 1002.0
20260504233944 7 271 17.7 17.7 0.00 0.00 0.10 68 1002.0
20260504233445 7 322 11.3 11.3 0.00 0.00 0.10 67 1002.0
20260504232944 7 325 6.4 8.0 0.00 0.00 0.10 69 1002.0
20260504232444 7 201 9.7 12.9 0.00 0.00 0.10 70 1002.0
20260504231944 8 259 9.7 11.3 0.00 0.00 0.10 68 1002.0
20260504231444 8 289 9.7 12.9 0.00 0.00 0.10 64 1002.0
20260504230944 7 258 16.1 16.1 0.00 0.00 0.10 65 1002.0
20260504230444 7 340 8.0 11.3 0.00 0.00 0.10 65 1002.0
20260504225944 8 302 8.0 14.5 0.00 0.00 0.10 62 1002.0
20260504225445 9 333 9.7 17.7 0.00 0.00 0.10 58 1002.0
20260504224945 10 323 14.5 22.5 0.00 0.00 0.10 56 1001.0
20260504224444 10 284 8.0 11.3 0.00 0.00 0.10 56 1001.0
20260504223944 10 243 8.0 9.7 0.00 0.00 0.10 58 1001.0
20260504223445 9 302 14.5 17.7 0.00 0.00 0.10 60 1001.0
20260504222944 9 290 8.0 8.0 0.00 0.00 0.10 60 1001.0
20260504222444 10 314 12.9 12.9 0.00 0.00 0.10 60 1001.0
20260504221945 10 323 12.9 12.9 0.00 0.00 0.10 59 1001.0
20260504221444 10 242 8.0 20.9 0.00 0.00 0.10 59 1001.0
20260504220945 9 237 6.4 17.7 0.00 0.00 0.10 61 1001.0
20260504220444 9 333 12.9 19.3 0.00 0.00 0.10 60 1001.0
20260504215944 9 275 12.9 12.9 0.00 0.00 0.10 61 1000.0
20260504215444 9 254 16.1 16.1 0.00 0.00 0.10 60 1000.0
20260504214944 9 257 12.9 29.0 0.00 0.00 0.10 61 1000.0
20260504214444 9 304 9.7 14.5 0.00 0.00 0.10 61 1000.0
20260504213944 9 311 9.7 17.7 0.00 0.00 0.10 64 1000.0
20260504213444 9 299 12.9 22.5 0.00 0.00 0.10 62 1000.0
20260504212945 10 322 11.3 12.9 0.00 0.00 0.10 60 1000.0
20260504212444 10 280 11.3 17.7 0.00 0.00 0.10 61 1000.0
20260504211944 10 332 11.3 11.3 0.00 0.00 0.10 62 1000.0
20260504211444 10 242 12.9 16.1 0.00 0.00 0.10 63 1000.0
20260504210944 9 270 9.7 14.5 0.00 0.00 0.10 63 1000.0
20260504210444 10 324 8.0 9.7 0.00 0.00 0.10 64 1000.0
20260504205945 10 289 12.9 14.5 0.00 0.00 0.10 62 999.0
20260504205445 10 323 11.3 16.1 0.00 0.00 0.10 62 999.0
20260504204945 10 315 8.0 16.1 0.00 0.00 0.10 61 999.0
20260504204444 10 285 9.7 9.7 0.00 0.00 0.10 60 999.0
20260504203944 10 281 17.7 17.7 0.00 0.00 0.10 60 999.0
20260504203444 11 327 9.7 17.7 0.00 0.00 0.10 58 999.0
20260504202945 11 227 4.8 20.9 0.00 0.00 0.10 59 999.0
20260504202444 11 260 11.3 11.3 0.00 0.00 0.10 59 999.0
20260504201947 11 302 11.3 24.1 0.00 0.00 0.10 56 999.0
20260504201445 11 279 9.7 17.7 0.00 0.00 0.10 59 999.0
20260504200945 10 247 12.9 12.9 0.00 0.00 0.10 61 999.0
20260504200444 10 259 6.4 9.7 0.00 0.00 0.10 61 999.0
20260504195944 11 293 14.5 14.5 0.00 0.00 0.10 59 999.0
20260504195444 11 325 11.3 22.5 0.00 0.00 0.10 55 999.0
20260504194944 11 195 16.1 16.1 0.00 0.00 0.10 56 999.0
20260504194444 11 168 17.7 17.7 0.00 0.00 0.10 58 999.0
20260504193945 11 279 9.7 19.3 0.00 0.00 0.10 59 999.0
20260504193445 11 288 11.3 17.7 0.00 0.00 0.10 60 999.0
20260504192944 11 327 14.5 14.5 0.00 0.00 0.10 60 999.0
20260504192445 11 312 11.3 12.9 0.00 0.00 0.10 61 998.0
20260504191944 10 235 22.5 22.5 0.00 0.00 0.10 62 998.0
20260504191444 10 236 12.9 12.9 0.00 0.00 0.10 64 998.0
20260504190944 10 301 11.3 24.1 0.00 0.00 0.10 60 998.0
20260504190444 10 297 16.1 16.1 0.00 0.00 0.10 59 998.0
20260504185944 11 82 6.4 14.5 0.00 0.00 0.10 61 998.0
20260504185445 11 243 12.9 12.9 0.00 0.00 0.10 59 998.0
20260504184945 10 264 12.9 16.1 0.00 0.00 0.10 60 998.0
20260504184444 10 55 16.1 20.9 0.00 0.00 0.10 63 998.0
20260504183945 10 264 11.3 12.9 0.00 0.00 0.10 63 998.0
20260504183444 10 106 8.0 11.3 0.00 0.00 0.10 65 998.0
20260504182945 10 231 9.7 11.3 0.00 0.00 0.10 65 998.0
20260504182444 10 311 9.7 20.9 0.00 0.00 0.10 63 998.0
20260504181945 10 231 9.7 14.5 0.00 0.00 0.10 63 998.0
20260504181444 11 325 6.4 11.3 0.00 0.00 0.10 63 998.0
20260504180944 11 305 12.9 12.9 0.00 0.00 0.10 63 997.0
20260504180444 11 267 11.3 14.5 0.00 0.00 0.10 61 997.0
20260504175946 11 229 11.3 11.3 0.00 0.00 0.10 60 997.0
20260504175444 12 278 11.3 11.3 0.00 0.00 0.10 58 997.0
20260504174944 12 272 14.5 14.5 0.00 0.00 0.10 57 997.0
20260504174444 12 56 11.3 27.4 0.00 0.00 0.10 58 997.0
20260504173944 12 0 9.7 14.5 0.00 0.00 0.10 58 997.0
20260504173444 12 305 11.3 19.3 0.00 0.00 0.10 57 997.0
20260504172944 12 270 12.9 12.9 0.00 0.00 0.10 58 997.0
20260504172444 12 6 20.9 20.9 0.00 0.00 0.10 59 997.0
20260504171945 12 254 14.5 27.4 0.00 0.00 0.10 58 997.0
20260504171444 12 251 22.5 22.5 0.00 0.00 0.10 57 996.0
20260504170945 12 312 12.9 25.7 0.00 0.00 0.10 58 996.0
20260504170445 12 340 9.7 16.1 0.00 0.00 0.10 60 996.0
20260504150944 10 248 6.4 14.5 0.08 0.00 0.10 80 995.0
20260504150445 10 247 6.4 11.3 0.10 0.00 0.10 80 995.0
20260504140626 8 163 6.4 14.5 0.00 0.00 0.03 85 995.0
20260504130444 11 278 17.7 17.7 0.00 0.00 0.00 56 994.0